Home > Time Zones > World Clock > Weather > Russia > Perm > Past weeks

Flag Weather past 2 weeks in Perm, Russia

Now
19 °F

Mixture of precip. Overcast.


Feels Like: 5 °F
Forecast: -11 / 20 °F
Wind: 15 mph from West

Location: Perm'/Bolshoe Savino

Current Time: Nov 26, 2014 at 12:09:56 PM

Latest Report: Nov 26, 2014 at 11:30 AM


Visibility: 3 mi

Pressure: 30.07 "Hg

Humidity: 93%

Dew point: 18 °F

Location of PermLocation

Historic Weather in Perm — Graph

°F

Perm temperature yesterday

Maximum temperature yesterday: 18 °F (at 5:00 PM)
Minimum temperature yesterday: 9 °F (at 12:00 AM)
Average temperature yesterday: 14 °F

Past Weeks' High & Low Weather Summary

 TemperatureHumidityPressure
High36 °F (Nov 12, 6:30 PM)100% (Nov 11, 9:30 PM)30.72 "Hg (Nov 11, 9:30 PM)
Low-11 °F (Nov 24, 7:30 AM)61% (Nov 23, 2:30 PM)29.92 "Hg (Nov 22, 11:30 PM)
Average22 °F86%30.34 "Hg
* Reported Nov 11 10:00 AM — Nov 26 10:30 AM, Perm, Weather by CustomWeather, © 2014

Note: Actual official high and low records may vary slightly from our data, if they occured in-between our weather recording intervals... More about our weather records

Advertising

Perm weather history for previous 24 hours

 ConditionsComfort  
Time TempWeatherWind HumidityBarometerVisibility
10:30 AM
Nov 26
19 °FMixture of precip. Overcast.17 mph93%30.07 "Hg3 mi
10:00 AM19 °FMostly cloudy.15 mph93%30.09 "HgN/A
9:30 AM19 °FLight snow. Mostly cloudy.15 mph86%30.09 "HgN/A
9:00 AM19 °FLight snow. Mostly cloudy.17 mph86%30.09 "HgN/A
8:30 AM19 °FLight snow. Mostly cloudy.17 mph86%30.09 "HgN/A
8:00 AM19 °FLight snow. Mostly cloudy.17 mph86%30.09 "HgN/A
7:30 AM19 °FLight snow. Mostly cloudy.17 mph86%30.09 "HgN/A
7:00 AM19 °FLight snow. Mostly cloudy.15 mph86%30.12 "HgN/A
6:30 AM18 °FLight snow. Mostly cloudy.15 mph93%30.12 "HgN/A
6:00 AM18 °FLight snow. Mostly cloudy.15 mph93%30.12 "Hg5 mi
5:30 AM18 °FLight snow. Mostly cloudy.15 mph93%30.15 "HgN/A
5:00 AM18 °FLight snow. Mostly cloudy.15 mph93%30.15 "HgN/A
4:30 AM18 °FLight snow. Mostly cloudy.15 mph93%30.18 "HgN/A
4:00 AM18 °FLight snow. Mostly cloudy.15 mph86%30.18 "HgN/A
3:30 AM18 °FLight snow. Mostly cloudy.15 mph86%30.18 "HgN/A
3:00 AM18 °FLight snow. Mostly cloudy.15 mph86%30.21 "HgN/A
2:30 AM18 °FLight snow. Mostly cloudy.20 mph86%30.21 "HgN/A
2:00 AM18 °FLight snow. Mostly cloudy.17 mph86%30.21 "HgN/A
1:00 AM18 °FLight snow. Mostly cloudy.17 mph86%30.24 "Hg4 mi
12:30 AM18 °FLight snow. Mostly cloudy.20 mph86%30.24 "Hg3 mi
12:00 AM16 °FLight snow. Mostly cloudy.20 mph93%30.24 "Hg2 mi
11:30 PM
Nov 25
16 °FSnow. Mostly cloudy.15 mph93%30.27 "Hg1 mi
11:00 PM18 °FSnow. Mostly cloudy.15 mph86%30.27 "Hg1 mi
10:30 PM16 °FSnow. Mostly cloudy.15 mph93%30.27 "Hg1 mi
10:00 PM16 °FLight snow. Mostly cloudy.17 mph93%30.27 "Hg2 mi
9:30 PM18 °FLight snow. Mostly cloudy.17 mph86%30.27 "Hg3 mi
9:00 PM16 °FLight snow. Mostly cloudy.17 mph93%30.30 "Hg2 mi
8:30 PM16 °FLight snow. Mostly cloudy.15 mph86%30.30 "Hg3 mi
8:00 PM16 °FLight snow. Mostly cloudy.17 mph86%30.33 "Hg4 mi
7:30 PM18 °FLight snow. Mostly cloudy.15 mph86%30.33 "HgN/A
7:00 PM18 °FLight snow. Mostly cloudy.15 mph79%30.33 "HgN/A
6:30 PM18 °FLight snow. Mostly cloudy.13 mph79%30.36 "HgN/A
6:00 PM18 °FMostly cloudy.13 mph79%30.33 "HgN/A
5:30 PM18 °FMostly cloudy.15 mph79%30.33 "HgN/A
5:00 PM18 °FMostly cloudy.13 mph79%30.33 "HgN/A
4:30 PM16 °FLight snow. Mostly cloudy.13 mph86%30.33 "HgN/A
4:00 PM16 °FLight snow. Mostly cloudy.17 mph86%30.33 "Hg4 mi
3:00 PM16 °FLight snow. Mostly cloudy.17 mph86%30.33 "Hg3 mi
2:30 PM16 °FLight snow. Mostly cloudy.17 mph86%30.33 "Hg2 mi
2:00 PM16 °FMostly cloudy.15 mph79%30.36 "HgN/A
1:30 PM16 °FMostly cloudy.15 mph79%30.36 "HgN/A
1:00 PM14 °FLight snow. Mostly cloudy.13 mph85%30.36 "HgN/A
12:30 PM14 °FLight snow. Mostly cloudy.15 mph85%30.33 "HgN/A
12:00 PM14 °FLight snow. Mostly cloudy.15 mph85%30.36 "HgN/A
Weather by CustomWeather, © 2014

See weather overviewHow to use our weather pages